• Processing (Info)

  • MPEC 2020-Q190 : 2020 QO5

    The following Minor Planet Electronic Circular may be linked-to from your own Web pages, but must not otherwise be redistributed electronically.

    A form allowing access to any MPEC is at the bottom of this page.


    Read MPEC 2020-Q189 Read MPEC 2020-Q191


    M.P.E.C. 2020-Q190                              Issued 2020 August 25, 05:22 UT
    
         The Minor Planet Electronic Circulars contain information on unusual
             minor planets and routine data on comets.  They are published
        on behalf of Division F of the International Astronomical Union by the
              Minor Planet Center, Smithsonian Astrophysical Observatory,
                              Cambridge, MA 02138, U.S.A.
    
                 Prepared using the Tamkin Foundation Computer Network
    
                                  MPC@CFA.HARVARD.EDU
                URL https://www.minorplanetcenter.net/    ISSN 1523-6714
    
                                    2020 QO5                                 
    
    
    Observations:
         K20Q05O* C2020 08 20.43704102 53 26.71 +21 14 08.6          20.50rUEQ190I41
         K20Q05O  C2020 08 20.48309002 53 37.30 +21 13 04.3          20.67gUEQ190I41
         K20Q05O  C2020 08 22.46618103 01 24.75 +20 24 36.9          20.44rUEQ190I41
         K20Q05O  C2020 08 22.48880003 01 30.04 +20 24 01.9          20.89gUEQ190I41
         K20Q05O bC2020 08 24.11081703 07 58.10 +19 40 38.0          20.6 GVEQ190L01
         K20Q05O bC2020 08 24.11315403 07 58.66 +19 40 34.0          20.6 GVEQ190L01
         K20Q05O bC2020 08 24.11549303 07 59.21 +19 40 30.0          20.5 GVEQ190L01
         K20Q05O KC2020 08 24.37484 03 09 01.99 +19 33 15.6          20.4 GVEQ190H36
         K20Q05O KC2020 08 24.37992 03 09 03.18 +19 33 07.0          20.6 GVEQ190H36
         K20Q05O KC2020 08 24.38499 03 09 04.41 +19 32 58.6          20.4 GVEQ190H36
         K20Q05O KC2020 08 24.39007 03 09 05.56 +19 32 50.0          20.8 GVEQ190H36
         K20Q05O KC2020 08 25.07931903 11 52.52 +19 13 05.7          20.0 GVEQ190I93
         K20Q05O  C2020 08 25.08095 03 11 52.73 +19 13 01.8          20.8 VVEQ190033
         K20Q05O  C2020 08 25.08303 03 11 53.23 +19 12 58.2          20.7 VVEQ190033
         K20Q05O KC2020 08 25.08455203 11 53.75 +19 12 56.5          20.7 GVEQ190I93
         K20Q05O  C2020 08 25.08512 03 11 53.72 +19 12 54.4          21.2 VVEQ190033
         K20Q05O KC2020 08 25.09004603 11 55.05 +19 12 46.9          20.1 GVEQ190I93
    
    Observer details:
    033 Karl Schwarzschild Observatory, Tautenburg.  Observers S. Melnikov, C.
        Hoegner, B. Stecklum.  Measurer B. Stecklum.  1.34-m f/3 Schmidt + CCD.
    H36 Sandlot Observatory, Scranton.  Observer G. Hug.  0.56-m reflector + CCD.
    I41 Palomar Mountain--ZTF.  Observers B. T. Bolin, Z. T. F. Collaboration.
        Measurers B. T. Bolin, F. J. Masci, Q.-Z. Ye.  1.2-m f/2.4 Schmidt.
    I93 St Pardon de Conques.  Observer F. Losse.  0.40-m f/3.7 reflector + CCD.
    L01 Visnjan Observatory, Tican.  Observer K. Korlevic.  1.0-m f/2.9 reflector
        + CCD.
    
    Orbital elements:
    2020 QO5                                                 Earth MOID = 0.2967 AU
    Epoch 2020 May 31.0 TT = JDT 2459000.5                  Bell                    
    M 321.64251              (2000.0)            P               Q                  
    n   0.26546238     Peri.  229.00077     +0.60499313     -0.79516814             
    a   2.3977325      Node   184.41465     +0.79032473     +0.59342578             
    e   0.5071403      Incl.   32.29095     -0.09679940     -0.12471357             
    P   3.71           H   18.99          G   0.15           U   9                  
    Residuals in seconds of arc
    200820 I41  0.1-  0.3+    200824 L01  0.5-  0.2+    200825 033  0.1-  0.1-
    200820 I41  0.1+  0.3-    200824 H36  0.5+  0.0+    200825 033  0.0-  0.1-
    200822 I41  0.0-  0.1+    200824 H36  0.2+  0.1-    200825 I93  0.2+  0.0+
    200822 I41  0.1+  0.2-    200824 H36  0.5+  0.0+    200825 033  0.2-  0.3-
    200824 L01  0.5-  0.4+    200824 H36  0.3-  0.0-    200825 I93  0.1-  0.1-
    200824 L01  0.5-  0.3+    200825 I93  0.5+  0.2+
    
    Ephemeris:
    2020 QO5                 a,e,i = 2.40, 0.51, 32                  q = 1.1817
    Date    TT    R. A. (2000) Decl.     Delta      r    Elong.  Phase     V
    2020 07 26    01 25 37.2 +25 53 17   1.0644  1.5156    93.5    42.0    21.7
    ...
    2020 08 10    02 14 41.0 +24 15 54   0.8748  1.4265    97.8    44.7    21.2
    ...
    2020 08 18    02 44 02.8 +22 07 08   0.7840  1.3822    99.8    46.2    20.9
    ...
    2020 08 24    03 07 31.1 +19 43 49   0.7222  1.3508   101.1    47.3    20.7
    2020 08 25    03 11 32.6 +19 15 31   0.7125  1.3457   101.3    47.4    20.7
    2020 08 26    03 15 36.0 +18 45 54   0.7031  1.3407   101.4    47.6    20.7
    ...
    2020 09 01    03 40 32.8 +15 19 20   0.6507  1.3118   102.3    48.7    20.5
    ...
    2020 09 09    04 15 05.0 +09 24 48   0.5945  1.2768   102.7    50.3    20.3
    ...
    2020 09 24    05 20 49.2 -04 58 37   0.5388  1.2241   100.7    53.6    20.0
    
    M. P. C. Staff               (C) Copyright 2020 MPC           M.P.E.C. 2020-Q190
    


    Read MPEC 2020-Q189 Read MPEC 2020-Q191


    MPEC number:

    Enter an MPEC number in one of the following forms:

    • 1997-B01 (the full form)
    • J97B01 (the packed version of the full form)
    • B01 (the abbreviated form)